Wind_Speed
11 11 7 3 3 7 11 9 12 15 12 7 4 5 5 10 8 8 20 15 21 19 18 19 18 18 18 16 15 14 14 13 13 10 10 11 11 10 11 11 11 10 11 13 17 18 19 18 17
10 9 3 5 5 10 9 12 15 13 10 11 10 6 2 7 9 18 16 19 20 20 17 16 19 17 17 15 14 14 13 11 11 8 7 10 10 9 10 11 12 10 12 16 20 21 20 19 18
7 4 3 2 8 11 12 16 13 16 14 7 5 6 4 6 17 13 19 20 20 19 18 18 18 18 16 15 14 13 11 10 9 6 6 7 9 8 9 10 12 11 13 18 20 20 21 20 19
1 2 2 10 15 13 15 14 18 19 11 6 12 9 9 13 8 15 22 20 19 17 16 19 18 17 15 14 13 11 10 8 7 6 5 5 5 7 7 8 10 11 14 16 18 20 21 21 20
0 4 10 14 16 16 13 17 18 15 7 13 9 9 10 5 12 22 22 20 19 19 17 18 19 17 15 12 12 11 9 8 6 4 3 3 3 4 5 5 8 10 11 15 16 17 18 19 17
4 3 9 13 15 11 12 14 13 14 11 10 20 18 9 12 22 21 20 20 18 18 16 16 19 16 13 11 10 8 7 5 3 2 2 1 2 3 2 4 5 8 9 11 14 15 15 13 13
4 8 12 15 15 13 10 10 10 12 12 9 17 12 14 18 20 20 19 19 18 18 15 14 13 14 11 10 8 6 5 4 3 2 1 0 1 1 1 3 5 9 9 10 12 14 12 10 9
3 6 10 9 11 12 11 11 13 14 10 13 15 7 17 22 21 19 18 17 16 15 15 14 13 10 10 8 8 7 6 5 4 3 2 1 1 0 2 4 4 8 10 9 11 12 11 9 8
4 5 9 10 12 10 13 16 10 8 17 9 5 13 21 24 22 19 19 17 16 17 14 13 12 11 9 7 8 7 6 5 4 2 4 1 3 3 2 6 5 7 10 11 11 10 10 9 7
2 10 12 7 15 14 15 16 14 16 15 11 13 16 24 24 22 21 19 18 17 15 15 14 12 10 10 9 8 6 6 3 5 4 5 3 2 2 3 5 7 6 8 10 10 10 10 8 4
7 12 11 11 12 17 18 16 13 14 12 14 20 25 26 24 22 19 17 15 15 14 12 13 12 11 9 9 6 5 5 4 5 3 2 1 1 3 4 7 7 4 5 9 7 8 8 8 9
8 8 11 11 15 16 14 16 10 11 4 14 19 26 26 24 22 21 18 17 16 15 14 13 12 12 12 7 6 7 5 4 4 3 2 2 1 2 2 3 5 9 6 5 8 9 8 9 10
10 10 9 12 15 15 14 12 12 4 6 13 20 23 22 20 19 17 17 16 16 15 15 14 13 12 10 10 7 7 6 3 3 3 3 1 2 1 2 2 1 5 7 6 6 7 7 8 9
5 10 12 13 11 13 11 10 12 8 13 17 22 23 21 20 20 18 18 17 17 16 15 13 12 12 11 8 8 6 5 5 4 3 2 1 2 2 2 2 3 4 5 6 7 8 7 7 9
7 11 10 10 11 9 9 9 7 15 17 19 22 21 20 19 20 20 18 17 17 16 16 15 14 12 11 10 8 6 4 3 3 3 1 1 1 2 4 2 3 2 3 8 7 6 7 7 9
4 5 7 9 11 7 12 9 11 18 20 22 22 21 21 20 19 18 18 17 16 15 15 15 13 12 11 10 9 6 4 4 4 3 2 1 1 1 3 4 2 1 2 3 4 6 7 9 9
6 2 3 8 13 7 13 8 13 20 20 21 22 22 22 21 20 18 17 17 16 15 14 14 13 12 12 11 8 7 6 4 3 3 3 2 1 1 3 3 4 3 3 5 3 2 1 4 8
3 6 4 5 11 11 12 6 10 21 22 23 23 23 24 23 23 20 18 16 15 15 14 13 12 13 12 10 10 8 7 5 3 3 4 4 2 3 2 5 5 5 4 4 4 3 3 5 8
1 4 4 1 2 10 11 10 13 20 22 22 24 24 26 26 26 23 21 19 17 16 15 15 14 13 11 10 10 9 8 6 4 3 3 1 3 3 5 3 4 5 4 4 3 2 3 6 4
6 5 4 3 2 7 6 8 11 20 23 25 25 25 27 28 28 25 23 21 19 18 17 16 15 14 12 11 11 10 9 7 6 5 2 4 2 3 6 7 6 6 4 1 4 3 2 5 3
11 8 4 5 3 6 6 12 11 16 20 22 23 24 26 29 30 28 26 24 21 20 19 18 18 17 16 14 12 12 9 8 5 5 4 4 5 4 6 5 7 7 4 3 4 4 2 2 4
14 5 2 3 7 2 2 1 11 14 18 21 25 26 26 29 31 29 28 26 24 23 21 20 20 21 18 17 14 14 11 10 7 6 6 6 4 5 6 6 5 4 5 7 4 4 5 4 3
9 1 4 4 9 6 11 6 7 8 12 20 26 29 28 28 30 30 29 27 24 21 21 20 21 22 22 20 17 14 13 10 7 7 9 7 6 4 5 4 5 5 3 5 7 6 4 5 4
2 8 7 7 8 9 4 5 10 8 9 11 23 30 32 29 29 30 28 26 24 21 20 19 20 21 23 21 18 15 14 13 11 8 6 6 7 7 5 5 4 4 4 2 4 5 4 6 7
11 13 10 9 8 7 6 5 6 5 5 3 6 25 32 32 30 30 30 28 24 22 20 19 21 20 23 23 20 17 15 14 12 11 6 6 6 7 8 5 4 4 2 2 2 4 4 5 7
14 17 12 8 10 5 5 5 5 4 3 6 6 11 27 34 33 32 31 28 24 22 21 23 23 20 21 22 21 19 17 13 12 12 10 8 8 8 10 6 4 3 3 2 1 5 6 7 7
11 11 15 16 7 8 12 5 11 5 4 6 1 11 22 35 36 33 30 30 27 24 24 26 24 19 18 19 20 19 19 18 13 13 10 9 8 7 9 5 3 3 3 3 4 4 6 7 7
14 9 12 11 15 12 9 8 9 8 12 12 4 9 21 31 36 33 31 31 29 26 24 24 23 20 19 19 19 19 20 20 18 15 14 12 9 8 8 7 7 5 5 6 6 7 7 7 7
10 13 10 13 13 14 12 9 3 7 8 8 6 4 18 31 37 33 32 31 28 25 23 22 23 22 22 19 18 19 20 20 20 16 15 13 10 9 8 7 7 6 6 6 7 8 9 8 10
15 21 20 13 17 12 13 12 11 9 9 12 6 4 16 28 36 34 33 31 29 25 24 24 24 21 20 20 22 20 20 19 20 18 15 13 13 10 8 6 6 6 7 6 7 9 10 11 12
Wind_Direction
142 139 159 210 188 71 81 86 106 119 129 85 137 119 80 28 359 87 140 142 142 143 141 139 149 150 155 148 141 135 128 119 115 112 105 95 92 86 81 83 86 96 103 122 124 121 117 117 114
154 158 186 250 102 89 91 118 126 133 116 112 89 95 52 77 77 124 133 141 141 142 143 144 149 149 152 150 144 137 133 126 120 112 103 106 104 88 88 84 89 96 98 114 123 122 119 114 110
140 181 277 49 59 81 111 121 122 128 125 121 103 68 36 86 122 125 145 142 142 144 144 165 155 152 152 152 148 144 142 137 126 117 109 104 101 97 86 85 91 96 98 112 119 122 120 114 111
338 228 216 80 82 80 109 123 146 140 126 126 120 95 91 117 121 141 141 143 142 141 149 157 159 154 153 152 150 151 147 145 131 123 116 111 101 100 92 87 89 94 109 114 123 128 123 118 110
284 243 102 87 90 103 105 125 146 144 137 145 128 112 114 95 136 139 145 144 147 148 160 153 161 157 151 154 152 144 144 137 125 115 106 112 123 114 112 102 102 103 115 126 127 133 130 124 114
161 215 103 96 97 105 113 136 146 150 154 120 126 117 101 133 142 146 149 149 152 153 156 161 166 165 160 156 157 155 160 157 158 128 111 101 110 115 130 125 132 120 124 135 136 141 146 139 125
70 84 94 105 112 114 118 135 156 154 154 119 141 116 132 147 151 150 152 153 157 156 159 164 170 176 178 171 186 196 203 205 218 247 229 26 112 15 141 145 151 147 142 143 146 146 152 162 160
90 109 104 106 109 115 124 119 132 150 104 137 147 139 155 155 153 154 154 158 160 162 172 169 176 184 188 206 219 205 210 216 233 244 271 261 66 34 144 128 160 155 159 159 158 152 144 145 167
199 125 102 111 114 134 131 130 136 137 136 141 146 143 152 155 155 156 158 164 172 175 180 182 186 190 198 198 224 215 223 223 236 271 310 12 345 246 116 185 168 157 167 164 172 175 165 149 140
50 81 78 106 110 137 144 141 136 147 148 140 131 135 151 156 163 167 173 174 179 183 183 183 192 188 194 189 205 183 216 215 220 214 224 199 223 194 175 154 165 152 169 178 173 176 184 156 160
42 92 111 115 121 135 139 142 148 149 171 165 154 152 159 162 168 175 177 182 177 185 191 191 193 195 189 197 197 148 213 176 246 200 220 285 7 33 191 186 152 155 168 171 177 178 169 175 180
118 86 100 119 144 140 147 142 155 172 133 174 169 164 165 170 173 175 180 179 184 190 188 195 198 196 193 188 189 196 197 211 198 224 193 253 20 15 79 158 181 155 170 215 170 177 187 179 183
92 109 114 135 148 153 144 153 143 113 152 153 161 168 171 174 177 179 180 182 182 187 192 194 192 199 195 187 192 190 179 190 198 193 235 230 83 43 106 131 149 173 179 185 179 186 183 195 190
107 103 120 143 146 151 163 145 162 131 145 154 165 173 176 178 180 180 183 184 184 185 188 189 190 195 188 180 176 180 184 197 193 217 236 38 65 106 129 99 150 185 169 187 188 192 189 187 193
137 125 133 154 152 165 166 170 207 155 156 161 170 177 180 183 182 185 183 183 181 183 185 186 184 188 184 184 183 193 188 195 206 217 257 157 71 134 164 187 186 179 156 177 185 196 194 187 197
154 211 172 168 180 165 204 115 153 167 166 168 175 182 187 188 188 185 183 180 179 176 181 181 184 187 191 193 195 194 207 200 211 219 250 211 136 164 182 177 202 165 173 147 173 187 202 196 207
210 171 228 165 198 156 209 109 153 174 178 178 182 184 190 191 192 189 185 182 183 183 188 188 190 193 197 202 197 203 212 192 195 210 199 233 198 176 148 171 189 147 179 179 171 189 193 239 237
187 215 231 249 181 213 201 227 170 181 187 185 188 189 193 195 195 194 192 187 184 186 189 193 199 201 206 204 206 205 214 210 213 216 203 214 222 238 176 202 185 175 184 190 198 246 308 282 262
187 269 258 152 148 226 233 244 173 188 198 193 191 191 194 198 195 194 195 194 192 194 195 197 199 204 207 210 206 206 204 215 221 210 227 214 222 226 209 205 210 197 189 190 220 229 276 311 283
234 258 186 140 211 233 263 244 184 189 202 201 197 192 195 193 194 195 196 198 201 202 204 204 205 212 210 209 204 199 201 214 213 224 253 231 219 204 190 198 202 221 193 149 172 192 177 18 120
234 259 21 323 162 233 274 242 207 198 207 206 211 201 196 195 194 194 197 201 203 208 210 211 214 215 214 201 198 202 199 203 207 210 207 195 198 210 201 210 197 214 172 210 186 194 141 128 118
257 119 233 227 249 277 251 338 193 196 206 208 207 208 200 196 195 198 198 202 205 211 212 214 219 217 215 212 196 194 190 194 192 197 209 203 192 205 208 202 206 205 208 212 199 185 200 162 173
277 343 254 249 256 251 191 251 110 176 206 214 212 207 205 198 196 199 200 198 202 207 211 214 217 217 212 210 205 204 196 199 194 195 191 190 210 212 217 207 209 206 190 231 197 212 198 218 205
167 216 215 232 267 257 191 251 167 165 213 208 209 207 203 199 197 196 198 196 198 206 209 208 212 216 213 215 214 212 204 194 197 193 187 199 209 225 218 211 212 191 195 207 204 217 229 208 221
213 234 238 220 212 248 108 231 294 161 192 258 215 203 203 199 197 196 195 194 198 203 203 198 206 209 212 215 217 219 218 211 216 206 212 217 218 220 209 184 192 195 195 234 214 216 233 240 234
214 237 242 233 248 236 132 242 156 86 305 303 262 205 196 196 198 198 195 195 198 194 193 191 197 200 208 214 217 218 219 214 221 225 215 224 219 221 222 208 218 224 217 226 261 252 238 246 254
176 230 253 282 238 273 272 205 257 233 148 174 19 190 189 192 195 195 194 194 192 191 191 194 200 200 206 212 214 218 220 210 212 214 226 225 225 229 231 219 207 226 231 236 266 237 243 245 265
263 266 214 229 260 257 249 243 271 296 312 312 137 187 181 188 191 191 191 193 191 195 196 195 203 199 202 207 208 210 213 215 212 216 219 221 228 232 230 233 247 262 243 243 257 251 269 271 269
195 229 233 271 236 256 259 254 41 325 339 351 30 186 185 184 187 187 190 191 188 189 192 192 198 196 203 209 213 208 210 213 212 212 220 225 234 232 239 239 250 238 250 255 259 262 258 287 281
239 216 226 226 230 240 276 286 310 302 319 304 317 290 186 186 184 188 189 189 187 188 188 186 188 183 198 214 216 218 218 212 217 215 218 231 238 236 233 241 245 248 248 248 278 290 273 284 283
Height
1505 1506 1509 1511 1505 1499 1515 1526 1527 1530 1536 1536 1537 1538 1538 1539 1535 1545 1554 1555 1559 1563 1563 1564 1566 1568 1570 1572 1573 1575 1576 1577 1577 1578 1578 1579 1580 1578 1577 1577 1577 1577 1577 1577 1578 1579 1581 1582 1584
1507 1508 1510 1501 1497 1511 1523 1520 1528 1532 1534 1538 1539 1541 1541 1543 1546 1549 1554 1558 1561 1565 1567 1568 1568 1570 1572 1574 1576 1577 1578 1579 1579 1580 1580 1581 1581 1581 1580 1579 1580 1580 1579 1579 1580 1582 1584 1586 1587
1506 1507 1504 1498 1499 1512 1523 1521 1527 1534 1536 1537 1540 1543 1542 1548 1550 1553 1556 1559 1562 1566 1568 1568 1570 1572 1574 1576 1577 1579 1581 1581 1582 1582 1582 1583 1583 1583 1582 1582 1582 1583 1582 1582 1583 1584 1586 1588 1589
1509 1509 1503 1501 1514 1510 1514 1519 1529 1532 1536 1538 1541 1545 1549 1551 1553 1553 1558 1562 1565 1569 1571 1569 1571 1574 1576 1577 1579 1581 1582 1583 1583 1584 1585 1585 1585 1585 1585 1584 1584 1584 1585 1585 1586 1587 1589 1590 1592
1508 1501 1502 1511 1516 1514 1518 1522 1527 1529 1534 1537 1540 1543 1550 1552 1554 1557 1561 1565 1568 1571 1573 1572 1573 1575 1577 1579 1581 1582 1584 1584 1585 1585 1586 1586 1587 1586 1586 1586 1586 1587 1587 1588 1588 1590 1591 1593 1594
1504 1499 1503 1517 1520 1519 1521 1525 1526 1529 1534 1539 1541 1543 1551 1554 1557 1560 1562 1566 1570 1573 1575 1575 1575 1578 1579 1581 1582 1584 1585 1586 1587 1587 1587 1587 1587 1588 1588 1588 1588 1588 1589 1590 1591 1592 1593 1595 1596
1501 1497 1507 1512 1521 1523 1524 1527 1527 1529 1532 1536 1540 1541 1552 1555 1558 1561 1563 1566 1570 1573 1577 1578 1579 1579 1580 1581 1583 1584 1586 1586 1587 1588 1588 1588 1588 1589 1588 1589 1589 1589 1590 1591 1592 1593 1595 1596 1597
1505 1502 1508 1508 1516 1527 1526 1527 1529 1531 1533 1540 1542 1544 1550 1555 1558 1562 1564 1567 1569 1573 1577 1579 1582 1582 1582 1582 1583 1584 1585 1586 1588 1588 1588 1588 1587 1588 1588 1589 1590 1590 1591 1592 1593 1595 1596 1597 1597
1505 1501 1511 1513 1513 1523 1526 1528 1532 1534 1537 1538 1542 1544 1549 1555 1559 1563 1565 1568 1570 1573 1577 1579 1581 1583 1583 1584 1585 1585 1586 1587 1588 1588 1588 1588 1590 1588 1589 1589 1590 1590 1591 1593 1594 1595 1597 1598 1598
1497 1503 1510 1510 1513 1520 1524 1528 1532 1535 1537 1541 1543 1547 1550 1555 1559 1562 1564 1567 1570 1572 1575 1578 1581 1583 1585 1585 1586 1586 1589 1590 1590 1590 1589 1588 1588 1589 1590 1590 1590 1591 1592 1593 1595 1596 1597 1599 1603
1501 1508 1509 1514 1516 1520 1525 1529 1533 1534 1536 1539 1542 1546 1551 1554 1559 1563 1566 1568 1572 1574 1575 1578 1580 1582 1584 1585 1585 1585 1590 1588 1590 1587 1588 1588 1588 1588 1588 1589 1590 1593 1593 1594 1596 1596 1599 1601 1603
1506 1509 1510 1515 1520 1522 1525 1529 1532 1533 1533 1537 1542 1546 1549 1553 1557 1560 1564 1568 1570 1571 1575 1577 1580 1580 1582 1584 1586 1588 1590 1590 1591 1590 1588 1588 1587 1588 1588 1589 1590 1592 1596 1594 1596 1597 1599 1601 1602
1503 1509 1512 1516 1521 1523 1526 1528 1530 1534 1536 1539 1544 1548 1551 1554 1558 1561 1563 1566 1569 1571 1574 1577 1578 1579 1581 1582 1586 1587 1588 1589 1590 1590 1589 1588 1587 1588 1589 1589 1590 1592 1595 1596 1597 1597 1598 1600 1602
1508 1509 1514 1518 1521 1524 1525 1528 1530 1536 1537 1540 1544 1548 1550 1553 1556 1559 1562 1565 1567 1570 1573 1576 1577 1579 1580 1582 1584 1587 1588 1589 1589 1590 1590 1587 1588 1588 1589 1590 1592 1592 1593 1595 1596 1596 1597 1599 1601
1509 1510 1514 1517 1520 1523 1525 1530 1529 1533 1537 1541 1544 1547 1550 1552 1554 1557 1560 1563 1566 1569 1572 1575 1577 1579 1580 1582 1584 1586 1588 1590 1590 1589 1588 1588 1588 1589 1589 1591 1591 1591 1590 1592 1593 1593 1594 1597 1599
1507 1507 1515 1517 1519 1522 1523 1523 1524 1532 1536 1539 1543 1546 1548 1551 1554 1557 1559 1563 1565 1569 1572 1574 1576 1579 1580 1582 1583 1586 1588 1589 1589 1588 1588 1588 1588 1588 1588 1589 1591 1591 1590 1591 1592 1592 1593 1595 1597
1506 1508 1511 1515 1514 1518 1521 1518 1522 1529 1533 1537 1539 1543 1547 1550 1553 1556 1559 1562 1564 1568 1571 1574 1576 1579 1581 1581 1583 1585 1586 1587 1589 1588 1587 1587 1587 1588 1588 1590 1591 1590 1592 1592 1593 1592 1592 1593 1593
1509 1508 1507 1508 1508 1513 1516 1515 1521 1526 1528 1531 1535 1539 1543 1547 1551 1554 1557 1560 1563 1566 1569 1572 1575 1577 1579 1581 1582 1584 1585 1587 1587 1587 1587 1587 1587 1587 1587 1590 1590 1591 1592 1592 1592 1591 1591 1591 1591
1500 1502 1505 1504 1503 1508 1507 1508 1516 1522 1524 1525 1528 1533 1538 1542 1546 1550 1554 1558 1561 1564 1567 1569 1571 1574 1577 1579 1581 1583 1584 1586 1586 1586 1585 1585 1586 1585 1586 1589 1589 1590 1590 1591 1590 1590 1590 1589 1588
1499 1501 1501 1500 1503 1506 1501 1506 1504 1516 1517 1519 1522 1526 1531 1536 1541 1546 1551 1555 1558 1561 1564 1566 1568 1571 1573 1576 1578 1580 1582 1584 1585 1584 1584 1583 1583 1584 1585 1587 1589 1589 1590 1589 1589 1589 1590 1587 1587
1496 1497 1499 1505 1503 1503 1505 1503 1501 1507 1514 1517 1519 1522 1526 1530 1535 1540 1545 1550 1554 1558 1560 1562 1565 1567 1570 1573 1574 1575 1577 1579 1582 1583 1582 1580 1582 1583 1584 1585 1587 1587 1589 1589 1589 1588 1588 1588 1587
1496 1491 1498 1502 1505 1506 1499 1508 1498 1496 1506 1510 1514 1517 1519 1524 1530 1535 1539 1544 1549 1552 1555 1558 1560 1564 1567 1569 1571 1572 1575 1578 1580 1581 1581 1581 1581 1582 1583 1583 1584 1586 1588 1589 1588 1588 1589 1589 1589
1494 1493 1496 1498 1498 1499 1496 1506 1488 1491 1500 1500 1505 1510 1514 1519 1524 1528 1532 1537 1542 1547 1551 1553 1556 1560 1564 1566 1569 1571 1573 1576 1578 1579 1579 1580 1580 1581 1581 1581 1583 1584 1586 1586 1586 1587 1587 1589 1590
1492 1497 1496 1494 1493 1508 1487 1499 1484 1489 1487 1486 1493 1500 1507 1512 1518 1523 1528 1533 1538 1542 1547 1551 1553 1557 1561 1566 1568 1570 1572 1575 1577 1578 1578 1579 1579 1579 1579 1580 1580 1581 1583 1583 1584 1585 1585 1587 1589
1495 1494 1508 1512 1507 1506 1484 1497 1476 1474 1476 1481 1482 1491 1500 1508 1512 1517 1522 1528 1533 1538 1543 1547 1549 1552 1557 1562 1566 1569 1571 1573 1575 1576 1578 1578 1578 1578 1577 1577 1579 1580 1582 1583 1584 1583 1584 1585 1586
1490 1488 1498 1523 1508 1493 1487 1499 1479 1471 1476 1478 1481 1482 1492 1500 1506 1511 1518 1524 1530 1535 1539 1543 1547 1551 1556 1560 1563 1566 1569 1572 1575 1576 1577 1577 1577 1576 1575 1577 1579 1578 1581 1582 1581 1582 1583 1583 1583
1484 1497 1477 1486 1480 1500 1484 1475 1467 1463 1471 1473 1477 1480 1485 1492 1499 1506 1514 1520 1527 1532 1536 1540 1544 1549 1553 1557 1561 1563 1566 1568 1572 1573 1575 1576 1576 1578 1576 1578 1577 1579 1579 1580 1580 1581 1580 1582 1582
1481 1474 1494 1488 1513 1514 1488 1487 1485 1471 1470 1465 1466 1476 1478 1487 1495 1502 1509 1515 1522 1528 1534 1538 1541 1546 1550 1553 1555 1559 1562 1565 1566 1569 1571 1573 1575 1575 1575 1577 1576 1578 1578 1579 1579 1579 1579 1579 1581
1485 1485 1481 1474 1476 1497 1500 1484 1456 1466 1466 1466 1468 1473 1477 1482 1490 1498 1504 1511 1518 1525 1530 1533 1537 1543 1547 1551 1555 1556 1558 1561 1564 1566 1568 1570 1572 1573 1573 1575 1576 1576 1577 1578 1578 1579 1580 1578 1580
1462 1470 1471 1487 1492 1482 1482 1481 1452 1457 1462 1462 1467 1470 1475 1480 1486 1493 1500 1507 1514 1520 1525 1528 1531 1538 1543 1546 1548 1553 1555 1558 1561 1563 1566 1569 1570 1571 1572 1574 1574 1575 1576 1575 1576 1578 1579 1577 1577